Regional Weather Roundup
Issued by NWS Grand Forks, ND

Home | Current Version | Previous Version | Graphics & Text | Print | Product List | Glossary On
Versions: 1 2 3 4 5 6 7 8 9 10 11 12 13 14 15 16 17 18 19 20 21 22 23 24 25 26 27 28 29 30 31 32 33 34 35 36 37 38 39 40 41 42 43 44 45 46 47 48 49 50
000
ASUS43 KFGF 230331
RWRFGF
PRAIRIE TO PINES  WEATHER ROUNDUP
NATIONAL WEATHER SERVICE EASTERN NORTH DAKOTA/GRAND FORKS ND
1000 PM CDT WED OCT 22 2014

 **SATELLITE DATA USED TO AUGMENT SKY COVER AT AUTOMATED STATIONS**
 *****  WEATHER ACROSS EASTERN NORTH DAKOTA  *****

CITY           SKY/WX    TMP DP  RH WIND       PRES   REMARKS
GRAND FORKS    CLOUDY    52  49  89 S9        29.84S
GRAND FRKS AFB PTCLDY    52  51  99 SW9       29.85R
GRAND FRKS NWS   N/A     50 N/A N/A SW3         N/A
DEVILS LAKE    CLOUDY    55  41  58 SW9       29.82R
FARGO          CLOUDY    54  51  90 SW8       29.89S
WAHPETON ARPT  CLOUDY    54  50  87 SW3       29.92S
$$

 ***** WEATHER ACROSS CENTRAL AND WESTERN NORTH DAKOTA  *****

CITY           SKY/WX    TMP DP  RH WIND       PRES   REMARKS
BISMARCK       CLEAR     48  38  68 SW3       29.92R
MINOT          CLOUDY    55  42  61 SW7       29.83R
JAMESTOWN      CLEAR     48  43  82 SW5       29.88R
MINOT AFB      PTCLDY    50  43  78 SW7       29.82R
GARRISON         N/A     45  40  82 W6        29.87R
WILLISTON      CLEAR     52  33  48 W13       29.87R
DICKINSON      CLEAR     45  32  60 W7        29.92R
HETTINGER      CLEAR     40  28  62 CALM      29.97R
$$

 *****  OTHER AIRPORT OBSERVATIONS IN OUR AREA  *****

CITY           SKY/WX    TMP DP  RH WIND       PRES   REMARKS
WALHALLA         N/A     50  50 100 S7        29.79R
GRAFTON AIRPOR NOT AVBL
VALLEY CITY AR FAIR      48  48 100 SW12      29.89R
CANDO          CLOUDY    52  45  76 SW8       29.82R
CAVALIER APRT  MOCLDY    50  48  93 SW8       29.80R
GWINNER        CLEAR     52  52 100 SW8       29.93R
ROLLA          FAIR      52  45  76 W12G18    29.80R
 ***** THE ABOVE OBSERVATIONS ARE NON NWS ARE NOT QUALITY
       CONTROLLED AND MAY MIS-REPORT RAIN FOR SNOW...
$$

  *****  WEATHER ACROSS NORTHERN MINNESOTA  *****

CITY           SKY/WX    TMP DP  RH WIND       PRES   REMARKS
FLAG ISLAND    LGT RAIN  50  46  87 S16       29.84R
WARROAD        DRIZZLE   52  48  87 S13       29.85F
ROSEAU         CLOUDY    54  48  82 S10       29.84S
HALLOCK        CLOUDY    54  50  87 S12       29.81S
THF RVR FALLS  CLOUDY    54  52  94 S9        29.87S
BAUDETTE       CLOUDY    55  43  63 S15G22    29.89R
WASKISH        DRIZZLE   52  46  82 SE3G16    29.90F
CROOKSTON      CLOUDY    54  52  94 S9        29.87F
STEPHEN NDAWN    N/A     54  52  94 S10         N/A
GREENBUSH NDAW   N/A     54  54 100 S10         N/A
$$
  *****  WEATHER ACROSS CENTRAL AND WEST MINNESOTA  *****

CITY           SKY/WX    TMP DP  RH WIND       PRES   REMARKS
FOSSTON        CLOUDY    52  52 100 S8        29.90S
BEMIDJI        CLOUDY    53  47  78 S7        29.91F
PARK RAPIDS    LGT RAIN  52  48  86 S7        29.93S
ELBOW LAKE     CLOUDY    54  53  97 SW3       29.94R
WADENA         RAIN      52  50  93 S6        29.93S
DETROIT LAKES  CLOUDY    54  52  94 SW3       29.93S
MOORHEAD       CLOUDY    54  54 100 CALM      29.91R
FERGUS FALLS   CLOUDY    54  52  94 SW5       29.93F
MORRIS MN      CLOUDY    55  54  94 W6        29.95R
STAPLES        DRIZZLE   54  45  71 S8        29.94S
$$
  *****  WEATHER ELSEWHERE ACROSS MINNESOTA  *****

CITY           SKY/WX    TMP DP  RH WIND       PRES   REMARKS
DULUTH         CLOUDY    52  34  50 S10       30.03F
INTRNTL FALLS  CLOUDY    54  41  61 S12G20    29.93F
ELY            PTCLDY    45  36  70 S6        30.02F
CLOQUET        CLOUDY    48  36  61 SE5       30.03S
WHEATON        CLOUDY    52  52 100 W6        29.95F
BRAINERD       CLOUDY    54  42  64 S14       29.97F
HIBBING        CLOUDY    51  37  58 S7        30.00F
ALEXANDRIA     CLOUDY    55  55 100 S8        29.96S
SAINT CLOUD    CLOUDY    58  43  57 S15       30.00R
MINNEAPOLIS    CLOUDY    55  40  56 SE12      30.06R
$$

  *****  WEATHER ACROSS SOUTH DAKOTA  *****

CITY           SKY/WX    TMP DP  RH WIND       PRES   REMARKS
SIOUX FALLS    CLOUDY    56  54  93 SW5       30.02R
BROOKINGS      NOT AVBL
WATERTOWN      MOCLDY    51  50  96 SW7       29.96S
HURON          CLEAR     51  49  92 SW7       29.98S
SISSETON         N/A     55  52  89 W6        29.92S
ABERDEEN       CLEAR     49  47  93 S8        29.95R
MITCHELL       CLEAR     51  50  96 SW6       30.01S
PIERRE         CLEAR     50  38  63 SW6       29.98R
MOBRIDGE       CLEAR     48  37  65 NW5       29.93R
RAPID CITY     CLEAR     43  30  60 CALM      30.02S
$$

  *****  SOME WEATHER IN NEARBY STATES *****

CITY           SKY/WX    TMP DP  RH WIND       PRES   REMARKS
GLASGOW MT     CLEAR     48  31  51 SE6       29.86F
GREAT FALLS MT CLEAR     47  33  58 S12       29.89S
CHEYENNE WY    PTCLDY    51  29  42 W6        30.17R
SCOTTSBLUFF NE CLEAR     44  30  57 SE7       30.09R
OMAHA NE       RAIN      63  60  90 SE13G21   30.04F FOG
DES MOINES IA  MOCLDY    58  45  62 SE10      30.12S
DAVENPORT IA   CLEAR     44  35  70 SE8       30.23F
CHICAGO IL     CLEAR     40  35  83 CALM      30.27R
EAU CLAIRE WI  CLOUDY    53  39  59 S9G18     30.12F
LA CROSSE WI   CLOUDY    54  37  52 S9        30.16S
$$

  *****  SOME NATIONAL WEATHER *****

CITY           SKY/WX    TMP DP  RH WIND       PRES   REMARKS
LA GUARDIA NY  HVY RAIN  51  47  86 N22G33    29.73F FOG
RALEIGH NC     CLEAR     52  41  66 VRB5      30.03S
ATLANTA GA     CLEAR     53  42  66 NW7       30.11R
NEW ORLEANS LA CLEAR     71  53  52 NE9       30.07R
OKLAHOMA CITY  LGT RAIN  63  59  87 CALM      30.12S
ALBUQUERQUE NM PTCLDY    61  41  47 SE6       30.17R
SALT LAKE CITY PTCLDY    51  35  54 CALM      30.17S
LOS ANGELES CA PTCLDY    69  61  75 W6        29.94R
BOISE ID       CLOUDY    62  30  29 E14       29.99S
SEATTLE WA     LGT RAIN  56  51  84 S9        29.58R
$$

*** WEATHER ACROSS MANITOBA...SASKATCHEWAN AND ONTARIO ***
                ***ONTARIO***

CITY           SKY/WX    TMP DP  RH WIND       PRES   REMARKS
GERALDTON      PTCLDY    36  34  93 S7        30.11F
THUNDER BAY    CLOUDY    45  41  87 E7        30.10F
SIOUX LOOKOUT  PTCLDY    50  39  66 S15G21    29.92S
TORONTO        MOCLDY    46  41  81 N13       30.24S
BIG TROUT LK   CLOUDY    50  43  76 S9        29.82F
PICKLE LAKE    NOT AVBL
DRYDEN         CLOUDY    54  41  62 S17       29.90S
KENORA         CLOUDY    55  45  67 S18G24    29.84F
$$
                *** MANITOBA***

CITY           SKY/WX    TMP DP  RH WIND       PRES   REMARKS
BRANDON        CLOUDY    54  46  76 W14       29.74R
DAUPHIN        MOCLDY    54  46  76 W14       29.67R
ISLAND LAKE    CLOUDY    54  45  71 SE8       29.70S
PILOT MOUND      N/A     55  45  67 W8          N/A
THE PAS        PTCLDY    46  45  93 N7        29.65S
THOMPSON       CLOUDY    45  45 100 NE10      29.70S
WINNIPEG       MOCLDY    54  50  87 S14       29.75S
LYNN LAKE      FOG       39  39 100 NE10      29.77S VSB 5/8
CHURCHILL      CLOUDY    37  36  93 NE10      29.86F
GILLAM         LGT RAIN  39  39 100 E7        29.75F
$$
                ***SASKATCHEWAN***

CITY           SKY/WX    TMP DP  RH WIND       PRES   REMARKS
ESTEVAN        PTCLDY    43  41  93 SW8       29.82R
KINDERSLEY     MOCLDY    43  36  75 SE10      29.72
LLOYDMINSTER   CLEAR     43  32  65 SE9       29.68S
PRINCE ALBERT  MOCLDY    46  45  93 CALM      29.73S
REGINA         PTCLDY    43  41  93 SW7       29.79S
YORKTON        MOCLDY    50  45  81 W8        29.73R
N. BATTLEFORD  CLEAR     37  34  87 E6        29.74F
LA RONGE       MOCLDY    45  43  93 CALM      29.74R
SASKATOON      CLEAR     37  34  87 SW5       29.76S
SWIFT CURRENT  CLEAR     39  34  81 S9        29.79S
$$
NOTE: THESE ARE AUTOMATED STATIONS WITH LIMITED QUALITY CONTROL
      "FAIR" INDICATES FEW OR NO CLOUDS BELOW 12,000 FEET WITH NO
      SIGNIFICANT WEATHER AND/OR OBSTRUCTIONS TO VISIBILITY.
      SKY/WX - SKY CONDITION AND SIGNIFICANT WEATHER.
      TMP - AIR TEMPERATURE.    DP   - DEWPOINT TEMPERATURE.
      RH  - RELATIVE HUMIDITY.  PRES - PRESSURE.
      HX  - HEAT INDEX.         WCI  - WIND CHILL INDEX.
$



USA.gov is the U.S. government's official web portal to all federal, state and local government web resources and services.